KCBE

Details ICAO KCBE (CBE)
Name Greater Cumberland Rgnl
Region United States
Timezone America/New_York (UTC-4.0)
Plans Departing 30
Arriving 9
Stats Elevation 775 ft / 236 m (AMSL)
Location 39.614869° -78.761793°
Runways 2
Magnetic Variation 9.935° W
Sunrise 2018-05-21 09:57:15 UTC / 2018-05-21 05:57:15 Local
Sunset 2018-05-22 00:28:55 UTC / 2018-05-21 20:28:55 Local
Advertisement - Login to hide

Runways

ID Width Length Bearing (true) Bearing (mag) Surface Threshold Offset Overrun Length
05 150 ft / 46 m 5,049 ft / 1,539 m 38.95° 48.88° Asphalt 0 ft / 0 m 0 ft / 0 m
11 150 ft / 46 m 2,437 ft / 743 m 97.00° 106.93° Asphalt 0 ft / 0 m 0 ft / 0 m
23 150 ft / 46 m 5,049 ft / 1,539 m 218.96° 228.89° Asphalt 0 ft / 0 m 0 ft / 0 m
29 150 ft / 46 m 2,437 ft / 743 m 277.00° 286.93° Asphalt 0 ft / 0 m 0 ft / 0 m

Map

Weather


0- 5 10 15 20 25 30 35+ Temperature / ° C

Clouds and Precipitation
Forecast for 2018-05-21 18:00 UTC. Updated 4 hours ago

Ground ~20,000 ft ~40,000 ft Winds

METAR

KCBE 212116Z AUTO 00000KT 10SM CLR 27/16 A3013 RMK AO1

TAF

Not found

Frequencies

Recorded 128.62 MHz AWOS 3
Unicom 122.80 MHz CTAF/UNICOM
Warning: Do not use this data for real-world aviation or navigation. No guarantee of current accuracy is given.